Starlink 4264

operational
NORAD ID: 52993 Int'l Des: 2022-076 Owner: SPXS Country: US Constellation: starlink
LEOCIRCULAR

About Starlink 4264

Description loading...

Live Position

Loading 3D Globe...

Upcoming Passes

Altitude History

Altitude vs Time

uPlot chart will show altitude changes over time

Two-Line Element Set

1 52993U 22076H 25259.95640431 -.00000876 00000-0 -36945-4 0 9994
2 52993 53.2167 154.0390 0001404 108.3913 251.7232 15.08833755176618
Epoch: Sep 16, 2025 • Age: 15 hours

Current Status

Altitude 539.6 km
Velocity 7.60 km/s
Sub-Earth Point 21.06°N, 108.77°E
Launch Date Jul 7, 2022
Age 3.1 years
Type internet

Technical Details

Classification Payload
Mass 297.00 kg
Dry Mass 275.00 kg
Total Mass 297.00 kg
Length 0.20 m
Diameter 2.80 m
Span 9.00 m
Shape Box + pan
Manufacturer SPXS
Bus Type Starlink
Phase Status In Orbit
Owner/State SPXS/US

Large Constellations

Loading constellations...